www.pogodaiklimat.ru

Погода и климат >> Архив погоды >> Россия >> Якутия >> Усть-Мома


АРХИВ ПОГОДЫ в Усть-Моме

Время (UTC), дата Ветер
(напр.,м/с)
 
Видим.   Явления Облачность Т
(С)
Тd
(С)
f
(%)
Тe
(С)
Тes
(С)
Комфортность P
(гПа)
Po
(гПа)
Тmin
(С)
Tmax
(С)
R
(мм)
R24
(мм)
S
(см)
21 14.03 штиль 0 50 км 4/0
[Ci fib]
-38.1 -40.9 75 -38 -38 опасность
обморожения
1019.5 990.9 -38.2 20
00 15.03 штиль 0 50 км 3/0
[Ci fib]
-28.3 -32.1 70 -28 -26 1018.6 991.2
03 15.03 штиль 0 50 км 6/0
[Ci fib]
-21.0 -26.7 60 -21 -17 1016.9 990.3
06 15.03 штиль 0 50 км 6/0
[Ci fib]
-18.2 -25.0 55 -18 -17 1016.8 990.5
09 15.03 штиль 0 50 км 8/0
[Ci fib]
-23.4 -28.2 65 -23 -23 1017.7 990.9 -18.1
12 15.03 штиль 0 50 км 6/0
[Ci fib]
-30.3 -33.4 74 -30 -30 1019.0 991.4
15 15.03 штиль 0 50 км 6/0
[Ci fib]
-33.8 -36.8 74 -34 -34 опасность
обморожения
1020.3 992.2
18 15.03 штиль 0 50 км 6/0
[Ci fib]
-36.4 -29.4 100 -36 -36 опасность
обморожения
1020.7 992.4
21 15.03 штиль 0 50 км 6/0
[Ci fib]
-38.3 -40.9 76 -38 -38 опасность
обморожения
1022.3 993.6 -38.3 20
00 16.03 штиль 0 50 км 10/0
[Cs]
-29.1 -33.0 69 -29 -27 1021.5 993.9
03 16.03 штиль 0 50 км 10/0
[Ci fib]
-23.3 -28.9 60 -23 -20 1020.0 993.0
06 16.03 штиль 0 50 км 10/0
[Cs]
-30.7 -26.4 100 -31 -30 опасность
обморожения
1018.9 992.3
09 16.03 штиль 0 50 км 6/0
[Ci fib]
-24.0 -28.8 64 -24 -24 1019.3 992.4 -20.6
12 16.03 штиль 0 50 км 3/0
[Ci fib]
-31.9 -35.7 69 -32 -32 опасность
обморожения
1021.1 993.1
15 16.03 штиль 0 50 км 3/0
[Ci fib]
-35.3 -38.4 73 -35 -35 опасность
обморожения
1021.7 993.4
18 16.03 штиль 0 50 км 3/0
[Ci fib]
-38.3 -40.9 76 -38 -38 опасность
обморожения
1022.2 993.5
21 16.03 штиль 0 50 км 6/0
[Ci fib]
-40.2 -43.4 71 -40 -40 опасность
обморожения
1022.7 993.8 -40.2 20
00 17.03 штиль 0 50 км 4/0
[Ci fib]
-31.3 -35.0 70 -31 -29 опасность
обморожения
1021.7 993.8
03 17.03 штиль 0 50 км 4/0
[Ci fib]
-23.3 -28.9 60 -23 -19 1019.6 992.6
06 17.03 штиль 0 50 км 4/0
[Ci fib]
-20.8 -26.5 60 -21 -19 1018.3 991.7
09 17.03 штиль 0 50 км 4/0
[Ci fib]
-24.6 -29.4 64 -25 -25 1019.4 992.4 -20.6
12 17.03 штиль 0 50 км 3/0
[Ci fib]
-32.4 -36.2 69 -32 -32 опасность
обморожения
1021.3 993.3
15 17.03 штиль 0 50 км 3/0
[Ci fib]
-35.0 -38.7 69 -35 -35 опасность
обморожения
1021.9 993.6
18 17.03 штиль 0 50 км 3/0
[Ci fib]
-35.8 -39.4 69 -36 -36 опасность
обморожения
1022.7 994.2
21 17.03 штиль 0 50 км 3/0
[Ci fib]
-38.8 -42.5 68 -39 -39 опасность
обморожения
1024.0 995.2 -38.8 20
00 18.03 штиль 0 50 км 1/0
[Ci fib]
-29.4 -33.1 70 -29 -26 1023.1 995.5
03 18.03 штиль 0 50 км ясно -23.0 -27.8 65 -23 -18 1021.9 994.9
06 18.03 штиль 0 50 км 3/0
[Ci fib]
-20.0 -24.9 65 -20 -18 1021.0 994.4
09 18.03 штиль 0 50 км 3/0
[Ci fib]
-24.0 -28.8 64 -24 -24 1022.1 995.0 -20.0
12 18.03 штиль 0 50 км 3/0
[Ci fib]
-32.3 -35.9 70 -32 -32 опасность
обморожения
1024.1 996.1
15 18.03 штиль 0 50 км 1/0
[Ci fib]
-36.2 -39.7 70 -36 -36 опасность
обморожения
1025.3 996.8
18 18.03 штиль 0 50 км 1/0
[Ci fib]
-38.5 -42.0 69 -39 -39 опасность
обморожения
1026.6 997.6
21 18.03 штиль 0 50 км 1/0
[Ci fib]
-39.1 -42.5 70 -39 -39 опасность
обморожения
1027.2 998.2 -39.2 20
00 19.03 штиль 0 50 км 3/0
[Ci fib]
-29.9 -33.7 69 -30 -27 1026.7 998.8 -39.7
03 19.03 штиль 0 50 км 8/0
[Ci fib]
-22.0 -28.6 55 -22 -18 1024.6 997.6
06 19.03 штиль 0 50 км 4/0
[Ci fib]
-20.3 -26.1 60 -20 -19 1023.3 996.7
09 19.03 штиль 0 50 км 3/0
[Ci fib]
-22.8 -29.4 55 -23 -23 1023.7 996.6 -20.0
12 19.03 штиль 0 50 км 3/0
[Ci fib]
-31.3 -35.0 70 -31 -31 опасность
обморожения
1025.1 997.2
15 19.03 штиль 0 50 км 3/0
[Ci fib]
-35.3 -39.0 69 -35 -35 опасность
обморожения
1025.7 997.4
18 19.03 штиль 0 50 км 3/0
[Ci fib]
-37.3 -40.8 70 -37 -37 опасность
обморожения
1026.4 997.7
21 19.03 штиль 0 50 км 3/0
[Ci fib]
-38.9 -42.5 69 -39 -39 опасность
обморожения
1027.0 998.0 -38.9 20
00 20.03 штиль 0 50 км 6/0
[Ci fib]
-29.3 -33.9 64 -29 -26 1026.0 998.2
03 20.03 штиль 0 50 км 5/0
[Ci fib]
-21.9 -27.6 60 -22 -17 1024.0 997.2
06 20.03 штиль 0 50 км 10/0
[Ci fib]
-18.3 -25.1 55 -18 -17 1023.1 996.7
09 20.03 штиль 0 50 км 8/0
[Ci fib]
-21.5 -28.2 55 -22 -22 1023.8 997.1 -18.0
12 20.03 штиль 0 50 км 8/0
[Ci fib]
-29.7 -34.3 64 -30 -30 1025.7 997.8
15 20.03 штиль 0 50 км 6/0
[Ci fib]
-34.2 -37.8 70 -34 -34 опасность
обморожения
1026.9 998.5
18 20.03 штиль 0 50 км 4/0
[Ci fib]
-37.3 -40.8 70 -37 -37 опасность
обморожения
1027.3 998.6
21 20.03 штиль 0 50 км 3/0
[Ci fib]
-39.5 -42.9 70 -40 -39 опасность
обморожения
1028.1 999.0 -39.5 20
00 21.03 штиль 0 50 км 3/0
[Ci fib]
-28.7 -32.6 69 -29 -26 1026.6 998.8
03 21.03 С 1 50 км ясно -21.3 -28.0 55 -24 -20 1024.1 997.4
06 21.03 СВ 1 50 км ясно -16.7 -24.7 50 -19 -18 1022.6 996.3
09 21.03 З 1 50 км ясно -21.5 -29.2 50 -25 -25 1022.6 995.8 -16.5
12 21.03 штиль 0 50 км ясно -30.4 -34.9 65 -30 -30 1023.9 996.2
15 21.03 штиль 0 50 км ясно -34.5 -38.8 65 -35 -35 опасность
обморожения
1024.7 996.4
18 21.03 штиль 0 50 км ясно -37.1 -40.8 68 -37 -37 опасность
обморожения
1024.8 996.2

 

Местоположение метеостанции Усть-Мома (Якутия, Россия): широта 66.45 долгота 143.20 высота над уровнем моря 196 м.

В архиве по умолчанию представлена погода в Усть-Моме за последнюю неделю. Архивные данные за месяц целиком и за предыдущие месяцы, начиная с января 2011 года, Вы можете получить, выбрав интересующий диапазон дат из раскрывающегося списка и нажав кнопку "Ввод!".


*Определитесь, кто Вы:
робот инопланетянин человек

Внимание! Время в таблицах - всемирное. Для получения местного времени необходимо прибавить поправку, которая равна 11 ч.

Смотрите также архив погоды в соседних городах и на ближайших метеорологических станциях:

Погода в Усть-Нере (Якутия, Россия) (214 км)
Погода в Белой Горе (Якутия, Россия) (266 км)
Погода в Юртах (Якутия, Россия) (275 км)
Погода в Усть-Чарках (Якутия, Россия) (294 км)
Погода в Делянкире (Якутия, Россия) (312 км)
Погода в Агаякане (Якутия, Россия) (354 км)
Погода в Депутатском (Якутия, Россия) (355 км)
Погода в Оймяконе (Якутия, Россия) (356 км)
Погода в Зырянке (Якутия, Россия) (356 км)
Погода в Иэме (Якутия, Россия) (360 км)

Пояснения к столбцам:

Ветер - указаны скорость ветра в м/с - средняя за 10 мин, порывы в срок и между сроками (в фигурных скобках) и направление, откуда дует ветер: С - северный, СВ - северо-восточный, В - восточный, ЮВ - юго-восточный, Ю - южный, ЮЗ - юго-западный, З - западный, СЗ - северо-западный.
Видимость - горизонтальная дальность видимости в метрах или километрах. При видимости от 1 до 10 км при отсутствии осадков обычно наблюдается дымка, при ухудшении видимости до 1 км и менее - туман. В сухую погоду видимость может ухудшаться дымом, пылью или мглою.
Явления - указаны атмосферные явления, наблюдавшиеся в срок или в последний час перед сроком; фигурными скобками обозначены явления, наблюдавшиеся между сроками (за 1-3 часа до срока); квадратными скобками обозначены град или гололедные отложения с указанием их диаметра в мм.
Облачность - указаны через наклонную черту общая и нижняя облачность в баллах и высота нижней границы облаков в метрах; квадратными скобками обозначены формы облаков: Ci - перистые, Cs - перисто-слоистые, Cc - перисто-кучевые, Ac - высококучевые, As - высокослоистые, Sc - слоисто-кучевые, Ns - слоисто-дождевые, Cu - кучевые, Cb - кучево-дождевые. Подробнее классификацию облаков см. в Атласе облаков (PDF).
T - Температура воздуха - температура, измеренная на высоте 2 м над землей.
Td - Температура точки росы - температура, при понижении до которой содержащийся в воздухе водяной пар достигнет насыщения.
f - Относительная влажность воздуха - влажноcть воздуха, измеренная на высоте 2 м над землей.
Te - Эффективная температура - температура, которую ощущает одетый по сезону человек в тени. Характеристика душности погоды. При расчете учитывается влияние влажности воздуха и скорости ветра на теплоощущения человека.
Tes - Эффективная температура на солнце - температура, которую ощущает человек, с поправкой на солнечный нагрев. Характеристика знойности погоды. Зависит от высоты солнца над горизонтом, облачности и скорости ветра. Ночью, в пасмурную погоду, а также при ветре 12 м/с и более поправка равна нулю.
P - Атмосферное давление - приведенное к уровню моря атмосферное давление.
Po - Атмосферное давление - измеренное на уровне метеостанции атмосферное давление.
Tmin - Минимальная температура - минимум температуры воздуха на высоте 2 м над землей.
Tmax - Максимальная температура - максимум температуры воздуха на высоте 2 м над землей.
R - Количество осадков - Количество выпавших осадков за период времени, мм. При наведении курсора мыши на число - период времени, за который выпало указанное количество осадков.
R24 - Количество осадков - Количество выпавших осадков за 24 часа, мм.
S - Снежный покров - Высота снежного покрова, см. При наведении курсора мыши на число - состояние снежного покрова и степень покрытия местности в баллах.